Theta_e
297 297 298 298 298 298 299 299 300 300 300 302 304 306 310 313 313 313 310 310 312 314 310 309 310 311 310 309 309 309 309 309 308 308 308 308 309 309 309 309 309 310 310 310 311 313 313 313 315 317 318 318 318 317 317 317 317 317 318 317 317 316 316 316 316 315 316 317 316 316 316 316 317 318 318 317 316 316 317 316 316 315 313 315 314 313 323
297 297 298 298 298 298 299 299 300 301 301 302 303 308 312 313 313 313 311 311 313 313 309 308 309 310 310 310 309 308 309 309 308 308 309 309 309 310 310 309 310 310 311 311 311 313 313 313 314 317 317 317 316 316 317 317 318 320 321 320 318 317 317 318 317 317 317 318 318 317 316 317 318 321 321 319 318 320 319 317 317 315 313 315 313 315 326
297 297 298 298 298 299 299 300 300 300 301 301 302 308 312 313 313 312 312 312 313 312 310 309 309 310 311 310 310 309 309 308 308 308 308 308 309 310 310 309 309 310 310 310 311 312 313 313 314 315 316 316 315 314 316 317 317 319 321 321 319 319 321 320 319 319 320 320 320 319 318 318 319 321 321 320 320 322 320 316 315 315 315 315 312 316 326
297 297 298 298 298 299 299 300 300 301 301 302 303 307 312 312 312 312 312 312 312 310 310 310 309 309 310 309 309 310 309 308 307 308 308 308 308 309 309 308 309 310 310 311 311 311 311 312 313 314 315 316 314 313 315 316 316 317 319 319 318 320 321 321 320 320 320 320 319 319 319 320 320 321 322 322 322 323 322 318 316 318 318 316 315 319 327
297 297 298 298 298 299 299 300 301 301 302 302 304 308 311 311 311 312 311 311 310 309 309 309 309 309 309 309 309 309 309 309 308 308 308 308 308 309 309 308 309 310 310 312 312 310 310 311 312 313 314 315 313 313 314 314 315 317 317 317 319 321 320 320 321 320 319 320 318 317 318 320 321 323 323 323 324 324 324 322 322 323 320 318 322 326 328
297 297 297 298 299 299 299 300 301 301 301 302 305 310 311 310 311 311 311 310 309 308 308 309 309 309 309 308 309 309 308 309 309 308 308 308 308 309 309 308 308 309 309 311 311 311 311 312 313 313 313 314 314 314 314 312 313 315 316 316 318 320 320 321 322 321 319 318 318 317 318 318 319 321 322 323 324 326 326 325 325 326 324 323 326 329 329
297 297 297 298 299 299 300 301 301 302 302 302 305 310 309 309 310 310 309 309 309 309 309 310 309 309 308 308 308 308 308 308 308 308 308 309 308 308 309 309 308 308 308 309 311 312 311 311 313 313 313 313 314 315 315 313 311 313 316 317 317 318 320 321 321 321 319 318 317 317 317 318 318 318 318 320 322 323 324 323 323 325 326 325 326 328 326
296 297 297 298 299 299 300 301 301 302 303 303 307 310 309 310 311 309 309 309 309 309 309 308 308 307 307 307 307 307 308 307 307 307 308 310 308 307 308 308 307 307 308 309 311 310 310 311 312 311 312 313 313 314 315 313 312 312 313 315 316 315 319 322 321 320 319 318 317 317 317 318 318 316 315 317 320 320 320 320 321 324 326 325 325 327 323
296 297 297 298 298 299 300 301 301 302 303 305 309 309 309 310 310 309 309 308 307 308 307 307 306 305 305 307 307 307 307 306 307 306 306 307 308 307 307 307 307 307 308 309 310 308 308 310 310 308 309 310 309 310 311 311 312 313 313 314 316 317 319 320 320 320 319 318 318 318 317 317 316 315 313 314 317 318 319 319 319 321 324 325 324 326 322
296 297 297 298 298 299 300 301 301 301 302 306 309 309 309 309 309 308 309 307 306 307 306 305 305 304 305 307 308 307 306 305 306 306 305 305 306 305 305 307 307 307 309 309 308 307 307 307 307 307 307 307 306 307 308 309 310 313 314 315 317 318 319 318 318 320 320 318 318 317 317 319 318 315 311 312 314 315 317 318 317 316 319 322 323 322 318
296 297 297 297 298 299 299 301 300 301 302 305 308 309 310 310 309 308 308 307 306 306 306 305 305 305 306 306 306 306 306 305 306 306 305 306 306 305 305 306 307 307 308 307 305 304 305 306 306 306 306 306 306 308 310 310 310 311 314 315 315 317 319 318 317 318 319 319 318 318 319 321 317 311 309 311 312 313 315 317 315 314 316 317 317 316 313
296 297 297 297 298 298 299 300 300 301 303 303 305 308 308 308 310 309 307 307 306 306 306 305 306 306 305 305 305 305 305 305 305 305 306 307 307 306 305 306 306 306 306 305 304 305 306 307 306 306 307 307 308 309 311 311 311 310 312 314 315 316 318 317 317 318 318 317 318 321 322 318 313 310 308 309 310 310 312 314 313 312 313 313 312 311 310
296 297 297 296 297 298 299 300 301 301 303 302 303 307 306 306 308 308 307 307 306 307 306 305 304 305 304 304 305 304 304 304 304 305 306 307 308 307 306 305 306 306 304 304 305 306 308 309 308 309 309 308 309 311 311 310 310 310 311 313 315 316 316 316 316 318 318 317 318 321 319 314 311 311 309 308 309 310 312 315 313 309 309 311 310 308 307
296 296 296 296 296 297 298 300 301 301 302 302 303 306 305 305 307 308 307 306 306 306 306 305 304 304 305 304 304 304 303 304 304 305 306 307 307 307 306 304 304 304 304 304 306 307 308 309 309 309 310 310 311 313 312 311 310 310 310 311 312 316 317 316 315 316 317 318 317 316 316 314 312 311 308 307 308 308 309 313 312 307 307 308 307 306 305
296 296 296 296 296 296 297 299 301 302 302 302 303 305 305 305 307 308 307 306 305 304 304 304 304 305 304 303 302 303 303 303 304 304 305 305 306 305 304 304 304 304 304 305 307 308 308 309 309 310 312 312 313 313 313 312 311 309 310 310 309 312 316 316 315 315 315 317 316 315 318 317 312 309 308 306 307 306 306 310 311 307 306 307 306 305 304
296 296 296 296 296 296 297 299 300 301 302 301 303 305 305 303 302 304 306 306 305 303 302 302 303 303 303 302 301 302 302 302 303 303 304 305 305 303 303 303 304 305 305 306 307 308 308 309 310 310 310 310 311 313 313 312 311 309 309 310 311 312 314 315 315 315 315 316 317 316 317 315 310 308 307 306 306 305 306 312 313 308 305 305 305 305 305
296 296 296 296 296 296 297 299 300 301 302 301 303 305 304 300 299 302 306 305 303 302 300 300 302 303 302 301 302 302 303 303 302 303 304 304 303 302 303 304 305 305 305 306 308 308 308 308 309 310 308 306 307 311 311 310 310 309 308 309 311 312 312 313 314 315 314 315 315 313 313 311 308 306 306 306 305 305 310 317 315 307 304 305 304 304 305
296 296 296 296 296 296 297 299 299 301 301 301 302 304 303 298 298 302 305 303 302 301 299 299 302 302 301 302 302 302 302 303 303 303 303 303 302 302 303 304 305 305 305 306 308 309 308 309 309 310 309 306 306 308 309 308 309 309 307 307 309 310 310 310 312 313 313 314 314 312 310 308 306 305 306 306 306 309 314 316 311 305 305 305 304 305 305
295 296 296 296 296 296 297 299 299 300 301 301 302 304 302 298 298 302 305 303 301 300 300 300 301 302 301 301 302 302 302 303 303 303 303 304 303 302 302 303 304 305 306 307 307 308 308 308 308 308 308 307 306 307 307 307 308 308 308 308 308 309 310 310 311 312 313 313 313 312 311 307 304 305 306 306 309 313 312 308 306 305 305 304 305 305 305
295 296 296 296 296 296 298 299 299 300 301 300 302 304 301 298 298 301 304 303 301 300 300 300 301 301 301 302 303 302 302 303 303 303 304 304 303 303 304 305 305 305 307 307 307 307 308 308 307 307 308 307 306 306 306 306 306 307 308 308 307 308 310 310 309 310 312 312 312 312 311 307 304 305 306 306 308 308 305 304 305 305 303 303 303 303 302
295 295 295 295 295 296 298 299 299 300 301 300 302 304 302 299 299 301 303 304 302 301 300 300 301 301 301 301 302 302 302 302 302 302 303 303 303 304 306 306 305 306 307 307 307 306 307 307 307 307 307 306 305 306 307 307 306 306 307 308 308 307 308 309 308 308 310 311 310 309 308 305 303 305 305 304 304 303 303 304 305 304 302 301 301 300 301
295 295 295 295 295 296 299 299 298 300 301 300 301 304 303 301 299 300 302 302 302 301 300 300 300 301 301 300 300 301 300 300 301 302 303 303 303 304 305 305 305 305 305 306 307 307 306 307 307 306 306 306 305 306 307 307 306 306 306 308 308 307 307 308 307 306 307 308 307 305 304 303 303 303 303 303 302 303 304 305 304 303 302 301 299 299 300
295 295 295 295 295 297 298 298 297 299 301 301 301 303 303 302 300 300 301 301 302 302 301 301 301 301 301 300 300 299 299 299 300 302 303 303 303 303 304 305 304 304 304 305 307 307 307 306 307 307 306 306 306 306 306 306 306 305 305 306 306 306 306 307 306 305 305 305 305 304 304 304 304 303 303 303 303 304 304 304 303 302 301 300 300 300 300
295 295 295 295 295 297 298 297 297 299 301 301 301 301 301 300 300 302 303 302 301 301 301 302 302 301 301 301 300 300 299 299 299 299 300 302 304 304 303 303 303 305 305 304 304 306 306 305 306 306 305 305 305 305 305 305 305 305 305 305 305 305 306 306 306 306 306 305 305 305 305 305 304 304 304 304 304 304 304 303 302 302 301 300 301 300 300
295 295 295 295 295 297 297 296 297 298 300 301 301 301 302 301 300 302 303 302 302 302 301 301 301 301 301 301 300 300 299 298 298 298 299 301 304 305 304 302 302 304 305 303 304 305 305 304 305 305 304 304 305 305 305 305 304 305 304 304 304 305 305 305 305 305 305 305 304 304 305 304 303 303 303 303 303 303 303 303 303 302 302 301 301 301 301
294 295 295 295 295 297 297 296 297 298 300 301 301 302 302 301 299 302 304 303 302 302 301 301 301 301 301 301 300 299 298 298 299 300 300 300 302 303 304 303 302 303 304 304 305 306 305 305 305 304 304 305 305 305 305 304 304 304 304 304 305 304 304 304 304 304 304 304 304 304 304 303 303 303 303 303 303 303 303 303 302 302 301 301 301 301 301
294 295 295 295 295 296 297 297 297 297 298 300 301 302 302 301 300 302 304 303 302 302 301 301 301 301 301 301 300 299 300 300 301 301 300 300 301 302 304 304 304 304 305 305 305 305 304 304 304 304 304 304 304 304 304 304 304 304 304 304 304 304 304 304 303 303 303 304 304 304 304 303 303 303 302 302 303 303 303 303 302 302 301 301 301 301 301
294 295 295 295 295 296 297 298 297 298 298 299 299 301 301 301 301 301 301 302 303 303 301 301 301 302 302 301 300 300 301 301 302 301 301 301 302 303 304 305 305 305 305 304 304 303 302 302 302 302 302 303 303 303 303 303 303 303 303 303 304 304 305 304 303 303 303 303 303 304 303 303 303 303 302 302 303 303 303 302 302 302 302 302 301 301 301
294 295 295 295 295 296 298 298 299 299 300 300 301 303 302 301 302 301 300 301 303 304 301 301 301 302 301 301 301 301 301 301 302 301 301 302 302 303 304 304 304 304 303 303 302 301 301 300 301 301 301 302 303 302 301 301 302 302 302 303 304 304 305 305 304 303 303 303 303 304 303 302 303 303 303 303 303 303 302 302 302 302 302 302 302 301 301
295 295 295 295 295 296 298 299 300 301 301 302 304 305 303 302 302 301 300 301 303 303 302 301 301 301 301 302 302 301 301 301 302 302 302 302 302 303 303 303 303 303 303 302 301 301 300 300 300 301 302 302 303 302 301 300 300 300 301 302 302 302 303 304 304 303 303 303 303 304 303 302 303 303 303 303 303 302 301 301 302 302 301 301 301 301 301
295 295 294 294 295 297 298 298 299 300 302 305 306 304 302 302 303 302 301 300 301 303 302 300 301 301 301 301 302 301 300 301 302 302 303 303 303 302 303 303 303 302 302 301 301 301 300 300 301 302 302 302 302 301 301 300 300 300 301 301 301 301 301 302 303 303 302 303 303 303 303 302 302 302 302 302 302 302 301 301 301 301 301 300 299 299 300
295 295 294 295 296 297 298 299 300 301 302 303 303 301 301 301 302 302 301 300 301 303 302 300 301 301 300 301 302 301 301 302 303 302 302 302 303 303 302 302 303 302 302 301 300 300 300 300 301 301 302 301 302 301 301 300 300 300 301 301 301 302 301 302 302 302 302 302 302 302 301 302 302 301 301 301 302 301 300 300 300 300 300 299 299 299 299
295 294 294 295 296 297 298 300 301 300 299 298 298 298 298 300 302 302 301 301 302 304 302 301 301 300 300 301 302 301 301 303 303 301 300 301 303 303 302 302 302 301 301 301 300 299 300 300 300 301 301 302 301 301 301 301 301 301 301 301 301 302 302 302 302 301 301 302 302 301 301 301 302 302 302 302 301 301 300 299 299 300 300 299 299 299 299
295 294 294 295 296 298 300 301 300 299 299 300 301 300 299 301 302 301 300 301 303 302 301 301 301 300 300 301 301 301 301 302 302 301 300 300 302 303 302 301 301 301 300 301 300 300 300 301 300 300 300 300 300 301 300 301 301 301 301 301 301 301 301 301 301 301 301 302 302 302 302 302 302 302 302 301 301 301 300 300 300 299 299 299 299 299 299
294 294 295 296 297 299 300 301 301 301 302 302 301 300 300 301 301 300 300 302 303 301 300 300 301 300 300 301 300 300 301 302 301 301 300 300 301 302 301 301 300 300 300 301 301 300 299 300 300 300 300 300 300 300 300 300 300 301 300 300 300 300 300 300 300 300 301 301 302 302 303 302 301 301 301 300 301 301 301 300 300 299 298 298 299 299 299
294 294 295 297 299 301 302 301 301 302 302 302 300 300 300 301 300 300 300 302 303 302 301 300 301 301 301 301 300 300 301 301 301 301 301 301 300 301 301 300 299 299 300 300 300 299 299 299 300 299 299 300 300 300 300 300 300 300 300 299 299 299 299 299 299 299 300 301 302 302 302 301 300 300 300 300 300 301 301 300 300 299 298 298 299 299 299
294 295 296 299 302 303 302 302 301 301 300 300 300 300 301 301 301 301 301 302 302 303 303 302 301 301 301 301 300 300 301 301 300 300 300 300 299 299 300 300 299 299 300 300 299 299 299 300 300 300 299 300 300 299 300 300 300 300 299 299 299 299 299 299 299 300 300 301 301 301 301 300 300 299 299 299 299 300 300 299 300 300 300 299 300 300 299
294 296 299 302 302 301 301 301 300 299 298 299 300 301 301 301 302 301 301 301 301 301 303 302 301 301 302 301 301 300 300 300 300 300 300 299 299 299 299 299 298 299 299 299 298 299 299 299 299 299 299 299 299 299 299 300 299 299 299 299 299 299 299 299 300 300 299 299 300 300 299 300 300 299 299 299 299 299 299 299 299 299 300 300 300 300 299
297 300 302 303 301 300 301 300 299 298 299 301 301 301 300 300 301 300 300 300 300 301 301 302 302 302 302 302 300 300 300 301 300 300 299 299 299 299 299 299 298 298 299 298 298 299 299 299 299 299 299 299 299 299 299 299 299 299 300 300 300 300 300 300 300 300 299 299 300 300 300 300 300 299 299 299 299 299 299 299 299 299 299 299 299 299 299
301 302 302 300 301 301 300 299 299 300 302 301 300 300 299 300 300 300 300 300 300 300 301 301 301 301 302 302 301 300 300 301 301 300 300 299 299 299 299 299 298 298 299 298 298 299 299 299 299 299 299 299 299 299 299 299 299 299 300 300 300 300 300 300 300 300 300 300 300 300 300 300 300 300 299 299 299 299 299 299 299 299 299 298 298 298 299
303 302 301 300 301 301 300 299 299 300 300 299 298 299 299 299 299 299 299 301 300 300 300 301 301 301 301 302 302 301 300 300 301 300 300 299 299 299 299 298 298 298 299 298 298 298 299 299 299 299 300 299 299 299 299 299 298 299 299 300 299 300 300 300 299 299 300 300 300 300 300 300 300 300 300 299 299 299 299 299 299 298 298 299 298 298 298
301 300 300 300 300 299 299 299 299 298 298 298 298 298 298 299 299 299 300 300 300 300 300 301 302 301 300 301 301 300 300 300 300 300 299 298 298 298 299 298 298 298 299 298 298 299 299 298 299 300 300 299 299 299 299 299 298 299 299 299 299 300 300 300 299 299 299 299 299 299 299 299 300 299 299 299 299 299 299 299 299 298 298 298 298 298 298
298 299 299 300 299 299 298 298 298 298 298 298 298 298 298 299 299 300 300 299 300 300 300 300 300 300 300 300 301 300 299 299 300 299 299 298 298 298 298 298 298 299 298 298 298 299 298 298 299 299 299 299 299 299 299 299 298 298 299 299 299 299 299 299 299 299 299 299 299 299 299 299 299 299 299 299 299 299 299 299 298 298 298 298 298 298 298
298 299 300 299 298 298 298 298 297 297 297 297 298 299 300 299 299 300 300 300 300 301 301 300 300 300 300 300 300 300 299 299 299 299 298 298 298 298 298 298 298 298 298 298 299 299 298 298 299 299 299 299 299 299 299 299 298 299 299 299 299 299 299 299 299 299 299 299 299 299 299 299 299 299 299 299 299 299 299 298 298 298 298 298 298 298 298
299 299 299 298 297 297 298 298 297 297 298 298 298 299 300 300 300 301 301 301 301 301 301 301 301 301 300 299 299 299 299 299 299 299 298 298 298 298 298 298 298 297 298 299 299 298 298 298 299 299 299 298 299 299 299 298 299 299 299 299 299 300 299 299 299 299 299 299 299 299 299 299 299 299 299 299 299 299 299 298 298 298 298 298 298 298 297
299 298 298 298 297 297 297 297 297 298 298 299 299 299 300 301 301 301 301 301 301 301 301 301 301 300 299 299 299 299 299 299 299 298 298 298 298 297 297 297 297 298 298 299 298 298 299 299 299 299 299 299 299 299 298 299 299 299 299 299 300 300 299 299 299 299 299 299 299 299 299 299 299 299 299 298 298 299 299 298 298 298 298 297 297 297 297
297 297 297 298 297 296 297 297 298 299 299 300 300 300 301 301 301 300 300 301 301 301 301 301 301 300 299 299 299 299 299 299 298 297 297 298 298 297 296 297 297 297 298 298 299 299 299 299 299 299 299 299 299 298 298 299 299 299 299 299 300 300 299 299 299 299 299 299 299 299 299 299 299 299 299 299 298 298 298 298 298 298 298 298 297 297 297
297 297 297 297 297 297 298 298 299 299 299 299 300 300 301 301 301 300 300 301 301 301 300 300 300 299 299 299 299 299 298 298 298 297 297 298 297 297 296 297 297 297 297 298 299 299 299 299 299 299 299 299 299 299 299 299 299 299 299 300 300 300 299 299 299 299 299 299 299 299 299 299 299 299 299 299 299 298 298 298 298 298 298 298 297 297 297
297 297 296 296 297 298 298 299 300 300 299 299 300 300 301 301 300 300 300 300 301 301 301 300 300 299 299 299 299 299 298 298 298 297 297 297 297 297 296 297 297 297 297 298 299 299 299 299 299 299 299 299 299 299 299 299 300 300 300 300 299 299 299 299 299 300 299 299 299 299 299 299 299 299 298 299 299 299 298 298 298 298 298 298 298 297 297
297 297 297 297 298 298 299 300 300 300 299 300 300 301 301 300 300 300 300 301 300 300 300 299 299 299 299 298 298 298 298 298 298 297 297 297 297 296 296 297 297 297 297 298 299 299 299 299 299 299 299 299 298 298 299 299 299 299 299 299 299 299 299 299 299 299 299 299 299 299 299 299 299 298 298 299 299 298 298 298 298 298 298 298 298 298 298
298 298 298 298 298 299 299 300 300 300 300 300 300 301 301 300 300 300 300 301 300 299 299 299 299 298 298 298 298 298 298 298 298 298 298 297 297 297 297 297 297 298 298 299 299 299 299 299 298 298 298 298 298 299 299 299 299 299 299 299 299 299 299 299 299 299 299 299 299 299 299 299 299 299 299 299 299 299 299 298 298 298 298 298 298 298 298
298 298 298 298 298 299 300 301 301 301 300 301 300 301 301 301 300 300 300 301 300 299 299 299 298 298 298 298 298 298 298 298 298 298 298 297 297 297 298 298 298 299 299 299 299 298 298 298 298 298 298 298 299 299 299 299 299 299 299 299 299 299 299 299 298 298 299 299 298 298 298 298 299 299 299 299 299 299 299 298 298 298 298 298 298 298 298
Wind_Speed
11 11 12 13 14 15 16 16 15 15 14 10 5 5 4 4 3 4 5 3 2 5 3 3 2 1 3 1 1 1 1 1 1 2 3 3 3 3 3 3 2 1 2 4 4 3 2 1 0 1 1 5 5 7 5 2 4 3 3 2 2 1 4 6 7 6 3 5 6 3 2 3 5 3 2 4 6 6 6 6 3 4 6 4 6 6 1
11 11 12 13 14 16 16 16 15 14 11 8 6 5 2 4 4 5 5 1 4 4 2 2 2 3 3 2 3 2 1 1 1 1 1 1 1 3 3 1 2 1 2 4 5 4 2 1 2 1 1 3 5 7 6 2 0 1 1 1 3 3 5 6 6 7 7 6 6 6 5 5 3 1 1 2 5 5 5 5 4 6 7 7 7 4 2
11 11 12 13 15 16 16 17 15 15 13 7 5 4 2 4 3 4 4 3 3 1 1 1 2 4 3 3 3 3 3 1 2 1 1 1 1 2 1 1 2 3 2 4 3 2 2 1 1 1 1 3 4 6 7 6 5 5 5 2 3 3 1 3 6 7 7 6 4 4 4 4 2 3 2 3 3 4 4 5 6 7 7 8 8 3 3
10 11 12 13 15 16 17 17 16 18 14 7 8 5 3 4 3 3 4 3 2 1 1 1 1 3 3 3 3 1 3 4 1 1 0 2 1 1 1 1 3 3 3 4 3 1 1 2 1 1 1 2 4 5 5 7 9 9 9 5 2 3 2 4 6 7 5 1 2 3 3 2 2 3 3 4 4 3 4 5 5 4 4 6 5 2 7
10 10 11 14 16 16 17 16 17 18 8 8 8 4 3 3 3 3 3 3 2 2 2 1 1 2 1 1 2 1 2 4 3 1 1 2 1 1 2 2 2 2 3 3 2 2 1 1 1 2 3 2 2 3 4 6 9 7 7 9 4 3 4 7 10 9 5 3 4 5 5 2 2 4 4 5 5 3 3 3 2 5 5 3 3 3 5
10 11 12 14 15 16 16 15 16 14 3 9 3 3 3 1 1 2 1 1 3 2 2 2 2 3 1 0 1 2 2 3 2 1 1 2 0 1 1 2 2 2 3 3 3 3 2 1 1 2 4 4 1 1 5 7 7 4 5 8 5 4 4 5 8 6 1 3 3 3 4 4 6 7 6 7 7 6 3 3 5 6 2 1 4 5 5
10 11 12 14 15 16 16 14 15 11 2 4 3 3 3 0 2 2 2 1 3 4 4 3 4 4 1 1 2 2 3 3 2 1 2 2 1 1 1 2 3 3 3 3 2 2 2 1 4 4 5 4 2 0 4 5 8 7 5 6 5 4 3 4 6 4 4 4 4 4 4 5 8 9 8 7 6 6 6 6 6 5 4 5 4 7 10
11 11 12 14 15 16 15 13 14 12 3 3 5 3 2 1 2 3 1 3 4 4 4 3 4 3 1 2 3 1 2 4 3 1 1 2 1 1 1 2 3 3 3 2 1 3 3 2 4 5 4 2 3 3 1 2 7 7 5 4 4 3 1 3 4 4 4 4 5 6 6 7 9 10 10 8 5 5 6 6 6 4 3 5 4 6 6
10 11 12 13 14 15 15 13 14 11 3 3 4 2 0 2 2 1 3 5 3 2 4 2 2 4 1 1 3 1 2 4 2 2 1 1 2 2 2 2 1 0 1 1 2 4 3 2 3 4 4 3 4 3 2 3 4 4 4 2 2 2 1 2 5 5 4 6 8 8 7 7 8 10 11 10 7 6 4 5 6 5 4 3 1 2 3
10 10 12 13 14 15 15 13 12 10 3 3 4 0 1 0 0 2 2 3 2 2 3 2 2 2 2 2 2 1 2 3 1 1 2 0 1 3 3 3 2 2 2 2 4 3 4 5 4 3 3 3 3 3 3 5 4 1 2 0 1 2 2 2 4 4 5 9 10 9 7 4 2 5 7 7 6 7 5 3 6 8 7 4 2 3 4
9 10 11 12 13 14 15 13 11 9 4 3 4 1 0 2 1 2 3 3 3 2 3 3 1 2 2 2 3 2 1 1 1 1 1 2 1 2 2 3 3 1 2 4 4 4 5 5 4 3 3 2 1 1 1 0 2 1 2 2 1 3 5 3 0 2 4 7 9 8 6 3 2 3 5 5 4 8 6 3 7 9 6 4 4 4 5
10 11 11 11 13 14 14 13 11 9 5 3 4 3 2 3 2 2 4 3 4 3 3 1 3 3 4 3 3 2 1 0 2 3 2 1 0 1 1 3 3 1 3 3 4 5 4 4 5 5 3 4 5 4 3 5 4 1 3 4 3 4 5 4 3 1 1 5 6 6 4 1 3 3 6 5 2 6 6 2 8 11 8 6 4 4 5
10 11 10 10 12 13 14 14 11 10 6 2 3 4 3 3 3 2 3 2 3 3 2 3 4 3 4 3 2 2 1 2 1 2 4 3 2 2 1 2 2 3 3 4 6 5 4 4 4 5 5 6 6 5 4 7 8 5 2 3 4 5 5 4 4 2 2 4 4 3 4 5 4 3 7 7 2 5 5 0 7 12 10 6 4 3 5
10 11 10 10 11 12 13 14 12 10 7 2 2 4 3 3 3 2 1 2 2 2 1 3 5 4 3 2 2 2 2 3 3 3 3 2 3 2 0 1 3 4 3 4 4 4 4 2 2 4 5 6 6 6 6 6 8 8 6 1 2 4 5 4 4 3 3 2 3 4 6 6 4 2 6 6 3 5 5 1 5 10 9 6 3 4 6
10 10 9 9 10 12 13 14 13 10 6 2 0 3 2 3 3 2 1 1 3 4 1 0 3 3 2 1 2 3 3 3 3 3 3 2 3 3 0 2 4 2 3 4 3 3 2 2 2 3 5 5 4 5 6 5 5 8 8 4 1 0 2 4 3 4 4 3 5 4 5 4 5 6 6 6 4 4 4 2 2 7 8 6 2 5 7
10 10 9 9 10 11 12 13 12 9 5 2 1 1 1 1 2 1 1 1 3 3 2 3 3 1 1 1 0 2 2 1 1 2 4 5 3 2 1 1 2 2 4 4 3 2 2 2 3 2 2 1 0 3 3 2 4 6 9 7 3 5 2 5 3 3 3 4 4 3 2 3 5 8 8 8 5 3 3 3 1 6 8 5 2 5 6
11 10 9 9 9 10 11 12 12 9 5 3 2 1 2 1 3 2 1 1 3 3 3 3 1 2 2 2 2 0 1 1 1 2 2 2 2 1 0 1 2 3 4 4 3 2 1 2 3 2 2 3 3 2 2 1 2 3 7 6 3 5 3 2 1 3 1 2 5 4 4 3 7 11 10 8 4 2 3 2 2 6 7 4 4 4 5
11 11 9 9 9 10 11 12 12 9 5 4 4 3 3 1 4 3 1 3 5 5 4 2 1 1 2 2 2 2 1 1 0 1 1 1 1 1 2 1 2 3 3 4 2 2 2 1 1 1 2 2 3 2 0 1 2 3 3 2 2 5 5 2 2 5 5 5 7 5 3 3 9 12 10 7 2 3 1 2 3 5 5 5 4 2 2
11 11 10 9 9 10 11 12 12 10 6 4 4 4 4 4 6 5 2 3 5 5 5 2 2 4 3 2 2 2 0 1 1 1 1 2 1 2 2 1 1 1 2 3 1 0 1 2 2 1 2 3 1 2 3 2 2 3 2 1 3 4 4 4 3 3 4 5 6 5 4 5 12 13 8 5 2 2 2 5 3 3 5 5 5 4 3
11 11 10 9 8 9 11 11 11 9 7 6 7 6 7 7 6 5 3 5 6 7 6 3 3 6 4 2 3 3 1 0 2 3 2 2 2 2 3 3 1 1 2 2 1 1 0 3 3 1 2 3 2 2 5 6 6 5 5 5 5 4 2 4 4 3 4 5 6 4 3 6 14 13 6 5 4 2 2 4 3 6 6 6 7 7 7
10 10 9 9 8 9 11 11 10 8 6 7 7 7 9 12 11 8 7 8 7 7 6 3 5 7 6 6 6 5 5 4 4 4 3 3 2 2 1 2 1 1 0 1 1 2 1 3 4 2 2 2 0 1 4 6 7 7 5 4 5 6 3 3 2 3 3 5 5 4 2 6 11 9 4 4 4 3 3 2 4 6 5 5 7 8 8
10 10 9 8 8 9 10 10 9 8 6 6 8 7 8 11 13 13 12 11 8 7 7 6 6 6 6 6 6 5 5 5 5 5 4 2 2 1 1 2 2 1 2 1 1 3 3 3 4 4 4 3 2 2 3 3 6 7 6 4 5 7 6 7 6 6 6 6 5 3 2 3 6 6 5 4 3 3 3 4 5 5 5 6 7 8 10
10 10 9 8 8 8 10 10 9 8 6 6 7 8 8 10 13 15 15 14 11 9 8 7 6 5 5 6 7 7 6 6 5 5 5 3 2 2 1 2 2 1 1 2 2 3 5 4 4 5 5 4 3 5 6 6 6 8 8 7 8 5 4 6 8 9 10 10 7 6 6 8 9 8 7 6 6 6 6 7 7 6 7 7 8 9 10
10 10 9 7 7 8 9 10 10 8 7 7 8 10 11 13 14 12 11 10 8 7 7 5 4 4 5 6 6 7 8 8 6 3 3 4 2 2 3 3 2 0 2 2 3 1 5 4 3 5 6 3 2 5 7 7 6 7 7 8 9 6 3 5 6 6 6 7 8 9 10 10 11 11 11 11 11 10 8 8 8 8 9 9 10 11 11
10 10 9 8 7 7 8 11 11 10 8 7 9 10 10 10 9 6 5 6 5 4 5 6 5 4 4 5 7 7 8 8 7 4 1 2 4 3 4 3 2 2 3 2 2 1 5 5 4 7 6 2 3 4 6 5 5 5 5 6 6 4 3 6 8 8 7 8 10 10 11 12 11 11 11 11 12 12 12 10 10 11 11 12 12 12 10
9 10 9 7 6 6 7 10 12 13 11 9 8 9 9 9 7 6 6 7 5 4 5 6 6 5 6 8 8 8 7 7 6 5 4 3 4 6 6 5 3 3 3 2 1 3 6 5 5 7 7 4 4 5 7 7 6 7 7 6 4 2 3 6 10 10 10 10 10 10 11 11 11 11 11 10 10 12 12 12 12 12 13 13 12 11 11
9 10 9 7 5 5 6 8 11 14 13 12 11 10 10 9 7 6 5 4 3 3 5 6 5 6 9 11 9 7 7 7 6 7 8 7 6 5 4 4 4 4 4 4 5 5 6 7 7 7 6 6 6 6 7 7 8 8 8 7 4 5 5 6 7 7 7 7 7 6 7 8 8 10 11 10 10 10 11 11 11 11 11 11 11 10 11
9 9 9 7 4 4 5 5 7 10 12 13 14 13 11 9 7 5 3 1 1 2 5 6 4 5 6 8 9 8 9 9 8 10 11 10 8 7 5 4 3 3 4 6 6 6 7 8 7 6 5 4 5 6 7 7 8 8 8 8 7 5 5 4 6 7 8 8 7 5 6 8 8 9 9 9 8 9 10 10 10 9 9 10 9 9 9
8 9 8 7 4 4 4 4 4 5 7 9 9 8 9 9 8 6 5 5 4 5 6 6 4 4 3 4 7 8 10 11 12 13 13 13 12 11 9 7 6 5 6 6 7 7 8 6 5 5 3 1 1 6 7 7 8 9 9 10 9 7 7 8 9 9 9 8 7 7 8 9 8 8 8 7 6 7 8 9 8 8 8 8 7 7 7
8 8 7 6 4 4 3 3 2 2 3 3 1 3 5 6 6 6 8 10 7 4 4 5 5 4 2 3 5 8 10 11 13 15 14 13 12 10 9 8 7 5 6 7 7 6 6 5 4 4 2 4 1 6 7 7 9 9 9 10 10 9 10 10 8 8 9 8 7 8 9 9 8 7 6 6 6 7 8 7 7 7 8 8 7 7 6
7 7 6 4 4 4 3 3 3 2 2 2 3 3 4 4 3 4 7 9 6 2 3 5 5 4 3 2 4 8 9 8 9 11 11 10 10 11 10 8 7 6 7 7 6 6 5 5 4 4 2 4 3 5 7 7 8 9 9 10 10 10 10 9 8 9 9 8 8 9 9 7 6 5 5 6 6 7 8 8 8 7 6 7 8 8 7
7 6 4 3 3 3 4 4 4 4 4 3 2 3 4 4 4 4 6 7 5 3 4 5 4 3 3 3 3 6 6 3 4 6 7 7 7 9 10 8 7 7 6 5 6 5 4 4 6 6 3 4 3 5 8 7 8 9 9 9 8 8 8 8 8 8 8 6 6 7 7 6 4 4 6 7 7 6 7 8 8 7 5 6 7 7 6
6 4 2 2 4 4 4 6 7 8 8 8 9 9 7 6 6 6 7 7 4 1 1 2 4 4 2 2 2 6 6 2 2 4 6 5 4 3 6 6 6 6 7 5 4 3 2 4 7 7 4 3 3 7 8 7 8 9 8 8 8 7 7 7 6 7 6 5 5 4 5 6 5 5 6 6 6 6 6 6 7 6 5 5 5 5 5
4 2 1 3 4 5 6 9 9 7 6 6 6 6 6 6 7 6 7 6 3 2 2 1 3 5 3 3 3 5 7 3 2 4 5 4 4 1 4 5 5 5 5 4 4 4 4 5 6 6 5 5 6 7 7 8 9 9 8 8 7 6 6 6 5 5 4 4 5 5 4 5 5 5 5 5 4 4 4 4 4 4 3 3 3 3 4
2 0 3 5 6 7 8 8 6 4 3 4 4 4 6 9 9 7 6 3 1 3 3 1 1 5 4 4 4 4 5 3 3 3 3 3 4 3 3 5 5 5 3 2 3 6 5 2 2 4 6 5 6 6 7 9 10 9 7 8 6 5 5 5 4 4 3 3 3 3 3 4 4 4 3 3 3 3 3 3 3 2 1 1 1 2 3
0 3 6 7 8 8 6 5 3 1 2 4 5 5 8 11 11 10 9 6 3 3 3 2 2 3 3 4 5 2 2 1 4 2 1 3 3 3 2 5 6 3 1 0 5 7 3 2 0 4 6 5 5 6 6 7 9 9 8 8 7 6 6 6 5 4 3 3 3 2 2 3 3 3 2 2 1 2 2 3 3 4 3 2 2 3 3
3 7 8 8 7 5 4 3 2 1 3 6 7 7 7 7 6 7 7 6 6 5 1 2 3 2 1 3 4 1 1 2 3 2 1 3 3 2 3 4 4 1 1 4 6 4 2 1 2 5 6 5 5 6 5 5 7 8 7 7 6 6 6 6 4 2 2 3 3 2 1 2 2 2 2 1 0 1 2 3 4 5 5 5 4 3 4
8 9 7 6 5 3 2 3 3 5 7 7 6 4 3 1 2 4 3 2 2 3 2 1 3 2 0 2 3 1 1 1 3 3 2 2 1 1 2 3 2 1 3 5 4 1 1 3 4 6 7 6 5 6 5 5 7 6 6 6 6 5 5 4 4 3 2 2 2 1 0 1 2 2 1 0 2 2 3 4 4 4 6 7 6 6 6
10 8 5 4 3 2 3 5 7 8 7 4 1 1 1 0 1 3 1 1 1 1 1 1 3 1 1 3 4 2 2 0 3 4 3 1 1 1 2 2 1 1 4 5 2 1 2 4 5 5 6 6 6 6 5 6 6 6 5 5 6 5 5 5 5 6 5 4 3 3 3 2 1 1 1 1 3 3 3 3 2 2 3 4 5 6 7
7 5 4 3 2 3 5 7 7 5 3 1 0 1 1 1 1 1 1 2 2 2 1 1 2 1 2 1 4 3 2 2 0 3 4 2 1 0 2 3 1 1 4 5 2 1 2 4 4 5 6 6 7 7 6 6 6 5 5 6 6 5 5 6 6 6 5 5 5 4 3 3 2 1 1 3 3 3 2 2 2 1 2 2 2 3 4
5 3 3 3 5 6 7 6 4 1 1 1 1 1 1 2 1 0 1 2 3 3 1 1 3 3 1 1 2 3 2 2 2 1 3 3 1 0 2 3 1 1 3 4 1 1 3 4 4 5 6 7 8 7 6 6 6 6 6 6 6 5 5 6 7 7 6 5 6 5 4 3 2 2 2 3 4 3 3 2 2 1 3 4 4 3 3
4 5 6 8 9 8 5 3 1 0 0 1 2 2 1 2 2 2 1 1 2 3 2 1 2 4 3 2 2 3 2 1 1 0 2 2 1 0 2 3 1 1 3 3 1 2 3 4 4 5 7 8 8 7 6 6 6 6 6 6 5 4 4 5 6 6 6 5 5 5 4 4 3 3 3 4 4 3 3 4 4 4 5 5 5 4 3
9 10 9 8 6 3 1 1 1 1 0 1 2 1 1 2 2 2 2 1 1 2 2 2 2 4 3 1 2 3 2 0 1 1 2 2 1 0 2 2 1 1 3 2 3 4 4 4 4 6 7 8 7 7 6 6 6 5 5 5 4 3 3 4 4 4 5 5 5 4 4 4 4 4 3 4 4 4 4 4 5 5 6 6 5 4 2
10 7 4 3 2 0 0 1 1 0 1 1 2 2 3 4 3 3 3 3 3 3 4 3 4 4 3 1 1 2 2 1 0 1 2 2 1 1 2 2 2 2 2 3 3 3 3 2 3 6 8 7 6 6 6 6 5 4 5 5 4 3 2 2 2 3 3 3 4 4 3 4 4 4 4 4 4 5 5 4 4 5 5 5 4 2 1
5 4 3 2 1 1 1 1 1 1 1 2 2 3 4 4 5 4 3 3 3 5 5 4 4 4 4 2 0 1 1 1 1 2 1 2 2 2 2 2 2 2 2 3 3 3 3 3 4 7 8 8 7 7 6 6 4 4 4 4 4 2 1 1 1 2 3 3 3 3 3 3 4 4 4 4 4 5 4 4 4 4 4 4 3 1 2
2 2 2 2 1 2 1 2 2 2 2 2 2 2 2 3 4 4 3 2 4 6 6 4 4 5 4 2 1 1 1 2 2 2 0 1 2 3 1 1 2 2 2 3 3 3 3 5 6 7 8 8 8 7 6 5 4 4 3 3 3 2 0 1 2 2 3 3 3 3 4 4 4 4 5 5 5 5 4 4 4 4 4 4 4 1 2
2 1 1 2 2 1 1 1 1 1 1 1 1 1 2 4 5 5 3 2 4 6 5 4 3 4 3 1 1 2 2 2 2 1 0 1 3 3 1 1 2 2 2 3 4 3 3 5 7 7 8 8 7 7 6 5 4 4 3 2 1 1 1 2 3 3 3 4 5 5 5 5 5 5 5 6 6 6 5 5 5 5 5 5 4 3 2
2 1 1 1 2 2 2 2 2 2 1 1 2 3 3 4 6 5 3 2 4 5 5 4 4 4 3 1 1 2 3 2 2 2 1 1 3 2 2 2 2 2 2 3 3 3 4 6 7 7 7 7 6 6 5 4 4 4 3 2 1 1 1 2 3 3 3 4 5 5 5 5 5 5 6 6 7 6 6 5 5 5 5 5 5 5 5
2 1 0 1 1 1 1 2 3 3 3 3 3 4 4 5 6 5 3 3 3 4 3 2 2 3 3 2 1 3 3 2 2 2 2 2 2 2 2 2 3 3 3 2 2 4 6 7 7 7 7 6 5 4 4 3 3 3 2 1 1 1 1 1 2 2 3 3 4 4 5 5 5 5 6 7 6 6 6 6 6 6 6 6 6 6 7
1 1 1 1 1 2 2 3 4 5 5 4 4 5 5 6 6 4 2 3 4 4 3 2 2 2 2 2 2 3 2 1 2 3 3 3 2 2 2 3 3 3 3 3 4 5 6 7 6 7 7 5 4 4 3 3 3 2 1 1 1 1 1 1 2 2 2 3 3 4 4 5 5 5 6 6 6 7 7 6 7 7 7 6 7 8 8
0 1 1 0 0 2 4 4 5 7 7 6 5 6 6 6 6 4 2 3 4 4 4 3 2 2 2 2 2 2 2 2 2 3 2 2 2 2 3 3 2 3 4 5 5 6 6 6 5 5 5 4 3 3 3 3 3 2 2 2 1 1 0 0 1 2 2 2 3 3 4 5 5 5 5 6 6 7 7 7 7 7 7 7 8 9 9
1 1 2 1 0 2 3 3 5 6 6 5 5 4 4 5 6 4 2 3 3 3 3 3 2 3 3 2 2 2 2 2 2 2 2 2 2 2 1 3 4 5 6 6 6 5 5 5 4 4 4 4 4 4 4 3 3 2 2 2 1 0 1 1 2 2 2 3 3 4 5 5 5 4 5 6 6 7 7 7 6 6 7 8 8 8 9
Wind_Direction
331 333 333 332 332 333 333 333 335 336 340 347 336 300 255 194 123 107 137 141 281 261 179 127 201 147 90 68 98 72 273 233 216 194 200 222 222 219 243 264 264 278 344 324 323 326 298 284 114 233 108 73 45 25 12 281 234 237 226 152 97 231 245 239 232 233 210 131 130 149 171 218 221 213 237 265 256 244 252 267 274 247 233 228 250 249 132
329 331 332 333 335 335 334 334 333 334 332 321 304 292 208 150 108 126 154 208 289 269 164 138 145 109 107 138 127 132 253 298 267 218 186 210 225 234 240 254 274 297 342 311 313 333 301 248 65 11 64 77 49 27 20 14 110 349 315 180 171 202 228 230 226 222 206 185 185 187 197 219 215 132 73 314 288 263 259 270 267 254 246 239 249 256 104
329 334 335 336 337 336 335 335 335 331 318 281 250 273 199 148 123 136 158 209 258 276 34 18 111 116 129 119 106 143 155 78 331 301 64 41 298 266 259 288 293 293 290 276 286 323 306 303 18 349 59 96 78 31 24 37 47 39 26 5 215 210 218 227 236 231 212 205 210 207 214 210 161 103 65 17 330 262 253 253 238 240 240 235 249 257 124
333 339 337 337 339 338 338 340 339 332 317 233 200 254 245 167 151 147 157 186 213 104 57 306 136 130 139 120 103 166 151 114 66 276 91 78 45 334 357 308 270 277 288 266 247 280 304 308 324 343 12 87 75 29 25 33 32 42 46 26 247 209 187 216 243 259 251 251 20 354 324 260 158 99 66 33 4 292 264 251 242 265 253 229 247 214 142
337 340 338 341 342 342 343 345 344 340 336 166 180 255 252 192 170 156 163 176 174 154 159 196 103 125 168 145 109 127 150 136 142 220 5 72 75 314 29 6 270 286 312 274 258 302 278 259 324 360 356 19 70 46 51 34 17 30 44 21 353 232 217 203 218 247 276 18 33 12 359 360 44 45 44 30 15 341 262 252 315 317 274 236 327 351 131
339 340 341 344 344 345 348 351 349 347 63 137 180 250 205 223 158 128 327 210 157 146 139 126 110 114 117 110 117 122 134 148 155 155 135 112 69 253 130 52 32 27 351 289 257 279 246 145 33 17 4 2 15 110 98 67 27 33 63 37 14 278 252 193 197 216 168 78 80 54 40 51 49 36 30 24 22 27 36 34 12 346 317 67 13 13 65
342 341 343 346 346 348 349 353 352 341 171 154 285 251 172 136 136 111 334 312 107 88 102 131 130 112 98 125 121 111 104 105 107 114 185 162 60 339 174 65 40 39 356 300 270 306 287 80 52 24 8 8 352 17 112 75 29 31 71 67 37 313 270 191 189 178 121 109 126 127 120 89 64 41 25 21 23 35 45 34 12 12 51 75 84 76 61
342 341 345 348 348 350 350 355 355 340 278 209 278 261 191 214 139 124 140 121 97 98 124 156 144 128 199 152 115 98 80 77 79 73 263 183 107 5 20 59 35 30 359 317 80 50 14 39 44 11 356 16 19 16 73 29 13 25 46 56 46 7 284 194 195 183 140 131 139 135 129 105 82 58 35 25 27 35 37 24 5 2 57 72 104 104 73
343 342 348 349 349 352 353 355 356 348 324 219 261 270 18 348 4 288 173 130 114 144 144 182 171 141 172 151 122 139 81 54 59 99 52 357 53 34 14 29 29 51 355 342 79 64 13 347 5 354 342 346 354 1 353 327 347 40 44 22 42 42 339 262 235 221 180 154 149 133 115 106 87 58 32 20 23 20 10 27 24 3 358 359 190 133 92
349 345 346 350 351 353 354 356 357 356 355 261 272 269 112 288 306 263 228 137 153 196 154 187 203 113 81 88 109 117 77 54 16 133 121 269 43 34 2 338 311 233 172 78 46 12 325 313 316 322 320 320 316 302 307 304 299 29 69 125 115 102 140 249 270 247 184 160 154 142 138 149 111 47 12 357 10 3 346 34 35 10 348 322 298 54 77
350 345 345 350 354 355 355 358 359 358 354 290 286 319 359 282 225 213 223 166 156 197 184 189 187 101 114 139 145 156 116 80 332 340 139 157 100 31 341 305 296 292 96 73 22 323 303 297 283 271 277 258 209 247 309 309 275 264 187 180 129 161 182 173 332 265 192 158 157 164 176 197 137 69 6 339 350 357 352 24 23 11 7 7 22 63 87
347 346 347 351 356 357 356 359 1 356 348 288 272 293 306 296 283 215 216 180 150 188 211 116 74 114 142 153 170 178 191 313 353 341 316 311 81 201 253 280 296 28 70 25 317 285 260 245 225 212 196 163 161 167 123 89 77 131 203 203 159 169 189 167 151 227 180 151 171 186 177 98 140 119 18 357 315 344 344 22 34 21 14 20 40 79 89
346 345 349 354 357 359 359 359 1 354 348 315 253 277 275 269 273 242 229 199 152 173 194 109 104 129 139 150 198 207 270 295 310 298 282 272 234 208 213 270 321 21 10 307 292 263 238 221 209 203 179 158 170 181 132 79 60 66 141 210 195 184 190 179 175 202 188 179 196 180 115 89 136 145 21 9 335 342 334 119 49 23 4 7 45 81 88
347 346 349 356 360 3 3 360 1 359 355 356 246 271 265 250 272 282 243 222 130 115 156 143 141 153 147 154 250 258 246 249 242 231 236 242 243 242 189 306 337 358 321 278 259 237 236 220 200 207 187 174 189 196 159 104 61 50 64 96 247 227 209 196 187 204 220 177 101 114 131 103 79 47 13 6 335 335 328 251 47 23 6 9 53 101 102
348 347 350 357 3 8 7 2 3 4 4 21 254 281 264 237 262 298 295 234 140 134 180 131 125 154 167 152 294 279 246 227 224 206 179 184 240 244 230 332 332 329 267 259 243 223 229 218 214 215 199 194 196 187 175 146 92 61 54 53 34 230 251 263 229 210 232 200 123 128 160 116 43 6 357 352 318 302 294 245 49 26 12 9 72 128 121
349 349 351 357 4 11 12 9 9 10 18 56 126 284 292 211 199 245 290 231 147 141 100 48 65 152 178 128 92 297 284 241 249 212 180 178 202 212 176 353 336 264 243 247 235 224 222 207 223 226 204 253 269 157 166 157 123 79 46 40 93 132 189 280 252 197 230 206 149 94 93 85 21 351 345 343 322 273 245 215 84 22 9 15 99 133 134
352 350 352 357 6 13 16 17 16 20 38 78 109 45 336 193 166 195 273 116 105 92 81 72 149 205 178 131 137 184 330 329 287 266 204 158 168 194 162 141 178 219 246 246 218 211 209 202 230 224 103 26 325 215 151 65 103 60 24 17 76 115 125 272 216 136 93 113 106 74 72 60 358 340 335 339 331 226 216 199 47 21 21 51 91 118 141
354 351 352 359 7 13 18 21 21 24 44 84 97 65 13 83 143 155 186 124 108 90 84 49 322 123 77 48 74 65 350 328 261 260 241 123 138 314 347 335 187 191 231 241 219 190 178 133 303 276 106 55 311 272 74 41 63 45 5 329 44 72 72 38 92 108 97 101 104 90 86 36 350 335 333 343 323 205 212 7 3 11 37 68 75 92 143
355 352 354 2 10 15 19 23 25 29 42 72 93 71 35 78 132 149 140 119 110 100 103 76 33 81 83 45 80 95 340 290 326 301 211 138 87 348 324 275 241 203 209 222 200 122 149 97 59 360 72 83 32 34 50 45 61 56 36 23 25 43 69 54 42 74 93 105 107 103 101 36 351 334 329 345 335 197 17 5 360 35 50 52 47 53 72
354 353 357 4 12 17 20 24 29 35 51 78 96 86 60 74 125 158 124 113 116 105 103 96 79 92 89 48 54 60 38 359 358 349 7 59 30 281 214 174 173 207 193 182 131 66 37 105 95 49 63 77 53 63 83 85 75 52 51 66 38 354 45 79 49 39 84 97 86 80 87 13 352 344 343 7 14 25 348 349 46 70 60 50 49 57 79
355 356 0 8 16 20 24 29 33 38 59 88 99 90 71 76 99 118 114 116 121 109 103 100 81 77 66 45 36 22 11 8 356 346 2 40 19 286 243 95 76 269 181 120 128 116 100 109 109 102 95 93 72 156 120 109 87 58 47 79 51 5 16 91 45 355 42 80 68 57 20 342 350 3 31 24 5 343 316 346 75 75 65 68 69 68 79
358 0 4 12 22 26 29 34 37 43 69 101 103 93 83 87 99 106 101 95 91 92 103 109 93 80 72 57 35 12 3 352 331 319 316 353 51 6 5 60 57 18 2 340 126 118 122 131 119 113 114 109 109 123 116 107 94 68 40 53 63 41 49 79 73 54 64 77 83 83 55 10 19 38 51 43 31 29 42 75 92 80 70 79 81 77 78
360 2 7 16 27 34 36 37 40 50 75 107 107 95 94 100 104 105 100 93 92 96 107 119 122 109 87 57 32 16 8 352 323 297 289 299 51 69 51 54 55 43 350 325 345 90 108 117 110 106 102 86 81 99 89 75 84 81 64 70 83 74 58 80 91 94 88 82 84 89 79 68 65 65 66 67 70 74 77 85 88 84 86 93 91 88 86
0 2 9 20 33 41 42 43 47 58 78 104 114 111 110 111 112 111 106 104 111 112 104 101 90 64 45 31 19 11 6 358 347 321 267 271 309 66 75 51 13 77 92 31 331 35 96 93 93 98 93 55 27 87 91 81 79 84 85 90 92 88 80 90 107 123 109 85 81 82 79 76 74 74 75 76 77 82 89 93 96 99 100 100 100 100 99
0 4 9 20 39 51 51 52 58 67 79 99 115 119 116 114 118 119 105 106 122 121 105 91 64 31 18 24 22 13 11 10 7 25 115 268 321 29 78 73 360 21 75 57 282 176 100 95 105 102 89 30 357 67 83 81 71 72 87 93 83 72 73 82 87 96 99 96 96 90 81 78 76 75 76 77 80 85 90 97 105 110 109 110 112 111 108
359 4 10 20 41 59 61 63 69 73 79 93 111 121 117 109 108 106 100 101 102 97 104 100 80 57 51 49 35 17 18 25 25 41 74 86 62 73 102 114 86 76 91 74 10 83 94 94 97 96 87 56 44 71 82 80 75 75 75 70 63 80 107 99 97 99 100 105 110 106 94 86 79 77 79 82 86 91 96 102 108 112 113 115 117 118 118
357 1 8 19 43 70 75 79 81 79 81 88 97 107 111 109 107 105 103 106 104 105 113 110 95 82 71 58 44 30 28 34 45 56 65 78 92 100 112 109 95 101 107 92 78 82 89 86 79 81 88 83 72 76 84 81 80 81 73 59 68 94 96 103 113 108 102 107 110 106 102 97 89 85 85 86 92 98 102 108 114 117 119 120 121 121 120
355 357 4 16 41 79 91 94 92 87 87 88 89 91 92 92 96 103 96 8 321 116 116 111 113 120 93 55 38 42 43 42 54 65 67 70 80 86 81 73 81 89 87 88 94 91 86 87 87 86 93 95 82 84 92 85 75 73 66 55 56 52 36 57 95 95 93 102 101 91 96 102 101 99 94 88 92 97 98 103 109 114 121 126 125 123 122
351 353 2 14 39 85 109 117 115 103 91 87 88 91 86 75 69 80 99 100 96 109 119 114 109 118 96 29 29 49 54 53 58 64 65 67 69 70 70 70 69 74 81 86 92 91 84 78 82 81 61 334 73 98 98 87 77 73 68 64 61 48 39 57 83 95 99 101 98 96 104 108 108 108 101 92 89 89 89 95 100 104 110 114 112 114 120
347 354 4 17 44 82 110 137 155 137 94 78 107 155 127 88 56 65 105 115 112 112 126 117 104 96 81 20 27 42 48 54 60 60 58 60 60 61 67 71 67 69 86 87 80 87 94 82 72 80 28 322 21 107 100 89 86 80 72 71 73 71 65 60 67 87 97 97 95 97 102 107 109 107 99 93 89 88 90 93 91 90 95 98 96 99 107
343 355 10 27 57 84 99 125 151 136 65 334 271 210 151 120 67 74 113 121 118 115 112 110 112 119 114 66 21 24 28 42 58 58 52 53 58 61 61 64 62 59 75 87 77 72 87 86 83 103 76 338 360 101 100 95 97 90 78 76 75 75 78 73 67 78 91 99 105 105 104 110 118 114 110 112 107 99 100 102 98 90 87 87 88 90 92
344 359 14 41 80 97 92 104 127 112 72 54 68 80 87 99 97 101 119 123 124 129 115 111 123 128 112 94 41 16 6 20 66 64 52 44 55 65 62 61 67 55 47 74 86 67 63 79 87 95 79 333 345 100 98 91 96 93 87 85 81 79 86 87 82 85 89 89 99 108 114 118 113 99 108 122 123 112 109 112 114 116 112 104 101 100 99
347 360 18 88 106 105 101 112 122 111 92 87 84 75 75 96 103 107 120 120 110 55 45 100 123 113 103 138 83 19 354 337 109 78 56 31 19 63 73 68 74 55 25 34 82 79 70 100 99 91 67 14 66 97 92 86 94 96 90 88 87 86 91 92 92 92 82 55 39 60 97 111 103 93 109 125 126 120 121 124 126 130 131 122 118 118 122
344 3 104 128 117 110 115 122 123 111 94 89 80 67 73 91 97 108 121 118 106 85 49 45 126 115 115 170 129 28 357 351 90 74 65 35 352 33 97 84 77 64 33 30 88 105 95 99 104 99 85 75 85 94 93 94 101 102 97 92 91 94 103 105 99 87 69 41 30 42 76 111 118 115 125 136 135 134 144 151 148 147 140 121 118 133 146
335 98 143 137 125 119 121 122 120 113 100 93 85 84 93 94 92 98 106 106 162 143 114 49 144 132 131 140 117 45 354 8 66 53 62 67 26 27 87 92 79 68 28 358 96 104 90 61 94 109 100 89 86 91 100 108 110 106 95 84 75 74 82 78 65 59 51 33 36 57 97 134 135 127 132 141 151 165 181 190 191 192 190 138 154 176 175
292 153 147 135 123 121 123 117 106 116 120 105 102 110 108 99 89 84 80 64 40 73 121 164 160 135 128 116 106 66 330 80 95 61 59 102 71 28 62 94 84 67 348 50 94 94 75 330 288 116 106 95 88 85 90 104 107 100 87 74 62 55 55 46 34 41 54 47 46 61 116 149 142 134 131 128 154 199 217 234 236 232 232 231 216 207 206
168 149 141 134 130 133 132 107 81 100 125 122 120 114 103 99 95 86 75 59 39 29 17 170 120 79 65 96 100 98 273 132 120 105 75 91 80 37 54 88 91 98 135 95 81 73 47 360 92 103 93 83 87 86 79 84 91 87 80 74 65 58 59 53 34 34 78 100 103 102 157 184 166 154 146 121 100 256 274 281 274 264 259 252 239 237 246
151 142 140 151 163 159 128 114 130 137 131 129 131 114 80 73 128 106 76 41 38 18 344 82 102 94 141 110 88 32 330 142 142 130 90 80 95 87 75 77 79 156 122 95 73 19 55 78 90 98 94 92 98 98 91 87 85 79 75 75 65 53 55 52 29 19 36 76 95 76 294 217 201 201 209 21 20 355 326 308 296 285 276 267 260 258 257
145 144 158 184 179 124 102 125 140 139 132 133 161 123 82 13 155 120 85 10 99 95 4 80 100 93 117 117 103 53 353 202 158 142 120 81 62 113 119 99 90 169 136 116 117 233 141 107 109 119 119 120 119 113 110 106 99 89 82 79 72 63 59 54 44 37 33 26 17 4 345 334 315 260 262 342 355 346 331 317 310 314 301 282 275 274 265
153 159 173 172 114 90 113 132 139 143 148 164 181 102 101 79 66 114 144 156 124 97 23 72 103 56 341 102 120 96 12 331 184 127 117 93 30 45 130 106 93 180 144 122 121 234 148 129 137 143 139 138 135 129 125 118 109 102 95 88 80 72 67 65 59 52 48 51 51 48 40 28 14 354 341 341 339 342 339 319 304 327 348 336 309 300 288
170 173 159 129 111 113 123 129 130 144 200 144 96 58 80 94 77 91 183 161 126 101 56 156 145 133 65 18 107 106 69 354 348 73 103 88 24 277 123 104 99 213 134 113 126 203 146 142 155 155 143 139 138 138 137 129 120 112 102 94 87 80 77 76 67 54 48 54 59 60 63 61 40 10 357 342 335 336 339 327 305 297 317 316 304 297 300
156 134 120 117 118 124 132 130 110 57 207 122 84 50 73 124 144 173 188 142 107 120 139 167 122 114 97 50 58 81 76 353 302 217 115 96 32 320 111 116 175 193 112 105 165 183 154 156 166 154 139 137 141 147 148 138 128 120 110 104 100 85 70 68 67 57 45 40 41 40 38 28 9 358 350 337 326 321 318 314 304 296 301 307 304 296 290
135 126 123 124 126 134 164 131 75 45 92 117 107 111 140 161 167 156 132 111 115 139 132 108 102 112 111 67 55 78 79 8 301 45 88 99 120 154 122 127 158 117 101 134 192 181 165 174 173 152 143 144 150 155 150 137 131 128 121 116 114 98 72 63 65 61 49 36 30 20 6 353 347 340 331 322 314 308 305 303 304 305 305 304 302 297 278
133 129 130 132 124 117 192 132 90 33 151 149 166 169 159 164 178 172 150 149 155 145 138 152 165 151 130 106 86 102 114 158 163 73 90 118 140 133 125 121 107 105 138 176 184 159 146 153 146 139 142 148 155 157 151 145 145 141 131 127 130 127 105 78 60 55 50 40 25 3 343 336 330 319 311 310 309 308 307 305 310 317 312 300 293 298 181
153 155 152 131 90 334 301 135 181 241 191 167 187 187 167 165 171 158 130 128 144 142 140 153 160 138 117 112 136 119 126 147 123 95 117 147 125 82 80 105 115 138 169 172 164 158 163 160 145 142 147 154 158 159 156 153 150 144 139 142 145 135 99 37 8 7 14 19 11 353 336 328 319 310 307 308 305 304 303 304 314 325 315 291 275 229 141
168 153 147 129 69 319 270 147 167 207 182 155 174 189 166 144 134 118 102 117 141 138 134 137 138 129 124 124 119 106 121 129 107 84 268 180 122 84 62 129 150 161 169 168 175 184 172 154 150 152 153 152 152 153 155 154 152 154 159 154 146 138 92 315 307 313 326 339 340 332 327 324 316 307 302 300 296 294 293 296 303 311 308 290 276 241 154
142 126 210 145 129 176 212 174 119 102 115 108 95 81 82 93 99 96 90 121 133 125 117 109 104 103 103 107 129 127 122 111 97 85 303 160 112 102 136 198 172 164 175 182 191 189 152 136 142 147 147 145 147 152 156 157 161 170 174 154 133 158 253 288 295 304 319 325 320 318 318 316 309 302 299 297 295 292 288 284 286 290 290 284 275 253 213
145 149 277 167 140 155 182 156 117 99 85 74 83 96 109 117 115 103 88 102 127 129 131 136 132 118 111 117 141 126 119 113 106 99 76 117 121 134 176 178 159 176 205 199 187 165 143 137 138 138 137 141 148 153 155 156 164 176 181 178 200 251 270 288 301 318 331 325 315 315 318 314 305 299 297 297 297 295 289 281 278 280 280 277 269 255 244
107 104 109 138 127 101 115 140 138 126 110 103 118 130 131 122 113 103 100 118 126 115 107 119 139 133 125 125 133 130 129 131 129 131 152 166 153 152 172 169 166 181 197 188 146 127 127 129 131 132 134 140 147 149 146 147 154 167 180 193 248 270 272 287 310 331 337 327 322 324 322 311 299 293 293 295 299 304 299 285 274 272 273 272 270 263 256
60 90 131 150 149 136 148 166 153 135 127 131 139 139 130 120 115 112 112 123 124 121 118 117 112 109 115 139 153 141 126 114 139 155 166 169 153 150 178 189 183 173 162 148 131 125 126 128 131 132 133 138 144 146 143 139 143 155 175 180 199 230 242 296 330 334 337 337 337 330 316 305 302 304 306 308 310 308 299 283 270 269 270 268 268 267 264
128 157 130 137 181 148 155 161 149 140 141 144 137 130 128 128 125 124 135 147 150 159 161 144 122 127 144 154 154 140 126 132 163 168 162 146 152 172 184 179 158 134 128 127 125 127 129 132 132 134 137 141 142 143 141 142 145 153 162 163 170 199 219 300 320 320 321 326 325 318 312 315 319 318 314 308 301 295 289 277 268 268 269 267 266 266 267
177 147 113 97 181 162 152 145 135 130 132 130 124 121 124 121 116 123 175 192 177 158 142 135 146 166 163 144 130 135 136 143 166 170 152 142 171 204 170 117 116 121 124 126 127 128 127 120 111 113 128 139 139 138 143 150 154 154 150 145 140 148 301 307 311 311 306 305 309 313 316 318 316 307 298 293 289 290 292 290 283 276 273 270 269 269 270